Weather reports worldwide

Advertisment
Kleine Brogel, Belgium (6479): temperature & dewpoint: 12.09.2019 06:00:00 - 18.09.2019 06:00:00 (CEST)Kleine Brogel, Belgium (6479): wind speed & gusts: 12.09.2019 06:00:00 - 18.09.2019 06:00:00 (CEST)Kleine Brogel, Belgium (6479): wind direction: 12.09.2019 06:00:00 - 18.09.2019 06:00:00 (CEST)Kleine Brogel, Belgium (6479): reduced air pressure: 12.09.2019 06:00:00 - 18.09.2019 06:00:00 (CEST)Kleine Brogel, Belgium (6479): visibility: 12.09.2019 06:00:00 - 18.09.2019 06:00:00 (CEST)
Date & Time tt [°C] td [°C] ff [km/h] ff [kn] fx [km/h] fx [kn] dd ppp [hPa] vv [km]
18.09.2019 06:00:00 - - - - - - - - -
18.09.2019 05:00:00 4,5 4,1 4 2 - - N 1026,9 16
18.09.2019 04:00:00 4,5 4,0 4 2 4 2 N 1026,5 16
18.09.2019 03:00:00 5,0 4,5 4 2 7 4 N 1026,5 20
18.09.2019 02:00:00 5,5 4,6 4 2 - - N 1026,5 20
18.09.2019 01:00:00 5,9 4,8 4 2 4 2 N 1026,4 20
18.09.2019 00:00:00 6,7 4,9 4 2 4 2 N 1026,2 20
17.09.2019 23:00:00 8,3 5,3 4 2 - - N 1025,9 20
17.09.2019 22:00:00 10,5 4,9 4 2 14 8 N 1025,4 20
17.09.2019 21:00:00 11,9 5,2 7 4 14 8 NNW 1024,9 20
17.09.2019 20:00:00 13,5 5,8 7 4 - - NNW 1024,2 20
17.09.2019 19:00:00 15,5 6,8 14 8 32 18 NNW 1023,3 20
17.09.2019 18:00:00 17,9 6,8 11 6 32 18 NW 1022,7 20
17.09.2019 17:00:00 18,0 8,3 18 10 - - NNW 1022,6 20
17.09.2019 16:00:00 19,0 8,8 14 8 32 18 WNW 1022,2 20
17.09.2019 15:00:00 18,2 8,7 14 8 29 16 NW 1022,2 20
17.09.2019 14:00:00 17,7 7,9 14 8 - - W 1022,3 20
17.09.2019 13:00:00 16,9 8,4 11 6 22 12 W 1022,7 20
17.09.2019 12:00:00 15,8 8,8 14 8 22 12 W 1023,0 20
17.09.2019 11:00:00 16,1 10,2 7 4 - - W 1022,7 15
17.09.2019 10:00:00 14,7 10,5 7 4 11 6 N 1022,7 15
17.09.2019 09:00:00 11,9 10,8 4 2 11 6 N 1022,2 15
17.09.2019 08:00:00 8,8 8,7 4 2 - - - 1022,1 0,8
17.09.2019 07:00:00 9,6 9,5 4 2 7 4 - 1021,8 0,3
17.09.2019 06:00:00 10,6 10,5 4 2 4 2 N 1021,7 5
17.09.2019 05:00:00 11,5 11,2 4 2 - - N 1021,5 12
17.09.2019 04:00:00 12,8 12,6 4 2 4 2 - 1021,5 9
17.09.2019 03:00:00 13,0 12,6 4 2 7 4 N 1021,6 6
17.09.2019 02:00:00 13,0 12,6 4 2 - - N 1021,8 10
17.09.2019 01:00:00 13,8 13,1 4 2 7 4 N 1021,8 10
17.09.2019 00:00:00 14,0 13,8 4 2 7 4 N 1021,8 9
16.09.2019 23:00:00 14,0 13,8 0 0 - - N 1021,7 10
16.09.2019 22:00:00 14,1 13,9 4 2 4 2 N 1021,7 10
16.09.2019 21:00:00 14,0 13,9 4 2 4 2 N 1021,2 10
16.09.2019 20:00:00 14,7 14,2 4 2 - - N 1021,1 10
16.09.2019 19:00:00 15,3 14,7 4 2 11 6 N 1020,8 10
16.09.2019 18:00:00 15,1 14,6 7 4 18 10 N 1020,7 8
16.09.2019 17:00:00 15,8 15,4 11 6 - - N 1020,7 2,0
16.09.2019 16:00:00 16,8 15,9 7 4 25 14 N 1020,3 1,8
16.09.2019 15:00:00 19,2 13,6 8 4 18 10 WNW 1020,0 10
16.09.2019 14:00:00 19,4 13,3 7 4 - - WNW 1020,1 17
16.09.2019 13:00:00 19,2 12,6 11 6 18 10 W 1020,2 17
16.09.2019 12:00:00 17,8 11,3 11 6 18 10 W 1020,2 17
16.09.2019 11:00:00 16,6 11,8 11 6 - - WSW 1020,6 17
16.09.2019 10:00:00 15,3 12,1 7 4 11 6 WSW 1020,7 17
16.09.2019 09:00:00 14,3 12,1 7 4 11 6 SW 1020,7 17
16.09.2019 08:00:00 13,8 12,1 4 2 - - N 1020,2 17
16.09.2019 07:00:00 12,7 11,7 4 2 4 2 N 1020,8 17
16.09.2019 06:00:00 12,3 11,3 4 2 4 2 N 1020,5 20
16.09.2019 05:00:00 11,6 10,8 4 2 - - N 1021,5 12
16.09.2019 04:00:00 12,1 11,5 2 1 4 2 - 1022,2 10
16.09.2019 03:00:00 12,7 12,0 4 2 0 0 N 1022,2 20
16.09.2019 02:00:00 13,3 12,3 4 2 - - N 1022,2 14
16.09.2019 01:00:00 13,5 12,2 4 2 4 2 N 1022,5 20
16.09.2019 00:00:00 13,5 11,8 4 2 4 2 N 1022,7 20
15.09.2019 23:00:00 14,6 12,2 4 2 - - N 1023,1 20
15.09.2019 22:00:00 15,5 10,4 4 2 11 6 N 1023,1 20
15.09.2019 21:00:00 16,6 7,1 4 2 11 6 N 1022,8 20
15.09.2019 20:00:00 18,7 6,0 4 2 - - N 1022,2 20
15.09.2019 19:00:00 22,3 7,4 7 4 18 10 W 1022,1 20
15.09.2019 18:00:00 24,1 7,7 11 6 25 14 W 1021,8 20
15.09.2019 17:00:00 24,6 8,0 11 6 - - W 1022,3 20
15.09.2019 16:00:00 24,8 7,7 14 8 29 16 W 1022,7 20
15.09.2019 15:00:00 24,3 7,5 18 10 29 16 WSW 1023,0 20
15.09.2019 14:00:00 24,1 9,9 14 8 - - WSW 1023,7 20
15.09.2019 13:00:00 22,1 10,5 18 10 25 14 WSW 1024,5 20
15.09.2019 12:00:00 21,2 10,0 14 8 22 12 WSW 1024,9 20
15.09.2019 11:00:00 18,6 9,3 11 6 - - W 1025,2 20
15.09.2019 10:00:00 16,1 9,8 11 6 14 8 SW 1024,7 20
15.09.2019 09:00:00 12,6 8,3 7 4 11 6 SW 1025,0 20
15.09.2019 08:00:00 9,6 7,3 4 2 - - N 1025,2 18
15.09.2019 07:00:00 7,1 5,9 4 2 7 4 N 1025,2 19
15.09.2019 06:00:00 6,8 5,5 4 2 7 4 N 1025,5 20
15.09.2019 05:00:00 6,6 5,7 4 2 - - N 1025,5 12
15.09.2019 04:00:00 7,3 6,3 4 2 4 2 N 1026,2 19
15.09.2019 03:00:00 7,3 6,3 4 2 4 2 N 1026,4 19
15.09.2019 02:00:00 7,8 6,3 4 2 - - N 1027,0 20
15.09.2019 01:00:00 8,8 7,0 4 2 4 2 N 1027,2 20
15.09.2019 00:00:00 9,3 6,5 4 2 0 0 N 1028,0 20
14.09.2019 23:00:00 10,5 6,9 0 0 - - N 1028,7 20
14.09.2019 22:00:00 12,3 7,0 0 0 0 0 N 1029,2 20
14.09.2019 21:00:00 14,3 7,2 4 2 4 2 N 1029,4 20
14.09.2019 20:00:00 16,4 7,0 4 2 - - N 1029,2 5
14.09.2019 19:00:00 19,8 6,1 7 4 11 6 NE 1029,5 20
14.09.2019 18:00:00 21,3 6,3 7 4 18 10 NE 1029,5 20
14.09.2019 17:00:00 22,1 7,2 7 4 - - ENE 1030,0 20
14.09.2019 16:00:00 22,4 8,0 7 4 18 10 NE 1031,0 20
14.09.2019 15:00:00 21,0 8,0 7 4 18 10 ENE 1031,7 20
14.09.2019 14:00:00 20,8 9,1 7 4 - - NNE 1032,2 20
14.09.2019 13:00:00 20,9 9,9 11 6 18 10 ENE 1033,2 20
14.09.2019 12:00:00 18,7 8,6 11 6 18 10 E 1033,7 20
14.09.2019 11:00:00 16,7 9,8 7 4 - - ENE 1034,2 20
14.09.2019 10:00:00 14,6 9,5 7 4 11 6 ENE 1034,5 20
14.09.2019 09:00:00 12,3 8,8 4 2 7 4 N 1034,2 20
14.09.2019 08:00:00 8,0 7,1 4 2 - - N 1034,4 19
14.09.2019 07:00:00 7,1 6,7 4 2 4 2 N 1034,2 18
14.09.2019 06:00:00 8,3 7,8 4 2 4 2 N 1034,5 20
14.09.2019 05:00:00 8,6 7,7 4 2 - - N 1034,7 20
14.09.2019 04:00:00 9,6 8,0 4 2 4 2 N 1034,5 20
14.09.2019 03:00:00 11,0 9,3 4 2 7 4 N 1034,9 20
14.09.2019 02:00:00 12,1 9,8 4 2 - - N 1035,0 20
14.09.2019 01:00:00 12,5 10,1 4 2 11 6 N 1034,7 20
14.09.2019 00:00:00 13,7 10,9 4 2 7 4 N 1034,7 20
13.09.2019 23:00:00 14,8 11,0 4 2 - - N 1034,7 20
13.09.2019 22:00:00 15,8 11,1 4 2 11 6 N 1034,5 20
13.09.2019 21:00:00 16,6 11,8 4 2 7 4 N 1034,2 20
13.09.2019 20:00:00 18,6 11,4 4 2 - - N 1033,5 20
13.09.2019 19:00:00 19,6 11,7 11 6 22 12 NNE 1033,2 20
13.09.2019 18:00:00 20,5 12,0 7 4 18 10 N 1032,9 20
13.09.2019 17:00:00 21,3 12,3 11 6 - - N 1033,0 20
13.09.2019 16:00:00 22,2 12,8 11 6 22 12 NNE 1032,9 20
13.09.2019 15:00:00 19,8 14,7 14 8 25 14 N 1033,2 15
13.09.2019 14:00:00 18,5 16,8 7 4 - - N 1033,0 15
13.09.2019 13:00:00 20,9 16,1 5 3 18 10 WNW 1032,7 10
13.09.2019 12:00:00 18,6 16,1 11 6 18 10 WSW 1032,9 6
13.09.2019 11:00:00 17,7 16,1 11 6 - - WSW 1032,5 7
13.09.2019 10:00:00 16,8 15,9 11 6 18 10 WSW 1032,0 3,5
13.09.2019 09:00:00 16,2 15,6 11 6 18 10 WSW 1031,5 3,3
13.09.2019 08:00:00 17,0 15,1 11 6 - - WSW 1031,0 7
13.09.2019 07:00:00 17,0 15,1 11 6 18 10 SW 1030,4 9
13.09.2019 06:00:00 17,5 14,8 11 6 18 10 SW 1029,9 20
13.09.2019 05:00:00 17,5 15,0 11 6 - - WSW 1029,7 20
13.09.2019 04:00:00 17,7 14,8 11 6 25 14 WSW 1029,7 20
13.09.2019 03:00:00 18,0 14,6 18 10 29 16 WSW 1029,5 20
13.09.2019 02:00:00 18,2 14,4 14 8 - - WSW 1029,5 20
13.09.2019 01:00:00 18,7 14,0 22 12 36 19 WSW 1029,5 20
13.09.2019 00:00:00 18,8 15,6 14 8 25 14 SW 1029,2 20
12.09.2019 23:00:00 19,1 15,2 14 8 - - SW 1029,2 20
12.09.2019 22:00:00 18,5 14,3 7 4 14 8 SW 1029,4 20
12.09.2019 21:00:00 18,9 13,6 7 4 14 8 N 1029,2 20
12.09.2019 20:00:00 20,2 13,5 11 6 - - WSW 1029,0 20
12.09.2019 19:00:00 21,7 12,7 14 8 32 18 W 1029,0 20
12.09.2019 18:00:00 22,3 12,4 18 10 32 18 WSW 1028,5 10
12.09.2019 17:00:00 23,1 11,9 22 12 - - WSW 1028,4 20
12.09.2019 16:00:00 23,2 12,3 18 10 43 23 WSW 1028,5 20
12.09.2019 15:00:00 23,0 13,5 14 8 32 18 W 1028,5 20
12.09.2019 14:00:00 23,1 14,2 22 12 - - SW 1028,5 20
12.09.2019 13:00:00 21,6 14,0 18 10 32 18 SW 1028,5 20
12.09.2019 12:00:00 20,7 15,4 18 10 29 16 WSW 1028,5 20
12.09.2019 11:00:00 19,8 15,8 22 12 - - WSW 1028,2 15
12.09.2019 10:00:00 18,1 16,4 18 10 25 14 SW 1027,5 15
12.09.2019 09:00:00 17,3 16,5 16 9 22 12 SW 1027,0 5
12.09.2019 08:00:00 16,7 16,2 13 7 - - SW 1026,5 5
12.09.2019 07:00:00 16,5 16,1 11 6 18 10 SW 1026,0 5
12.09.2019 06:00:00 16,5 16,1 11 6 18 10 SW 1025,5 12

tt = temperature
td = dewpoint
ff = wind speed
fx = gusts
dd = wind direction
ppp = reduced air pressure
vv = visibility

Next stations